FW6511 Weather Reports


time (UTC)temp
C
wind
direction
speed
KPH
gust
KPH
rain 1hr
cm
rain 24hr
cm
rain mn
cm
humidity
%
barometer
mb
20260507232101 8 290 0.0 3.2 0.00 0.00 0.00 72 1012.2
20260507231056 8 210 0.0 3.2 0.00 0.00 0.00 72 1012.2
20260507230100 8 144 0.0 3.2 0.00 0.00 0.00 71 1012.2
20260507225057 9 191 0.0 3.2 0.00 0.00 0.00 71 1012.2
20260507224121 9 0 0.0 3.2 0.00 0.00 0.00 71 1012.2
20260507223056 9 136 0.0 3.2 0.00 0.00 0.00 71 1012.2
20260507222100 10 321 1.6 4.8 0.00 0.00 0.00 70 1012.2
20260507221057 10 166 0.0 3.2 0.00 0.00 0.00 70 1012.2
20260507220100 10 248 1.6 3.2 0.00 0.00 0.00 70 1012.1
20260507215056 10 242 1.6 8.0 0.00 0.00 0.00 70 1012.1
20260507214200 10 108 1.6 8.0 0.00 0.00 0.00 69 1012.2
20260507213036 11 214 1.6 8.0 0.00 0.00 0.00 69 1012.2
20260507212201 11 199 3.2 8.0 0.00 0.00 0.00 69 1012.2
20260507211136 11 187 1.6 8.0 0.00 0.00 0.00 67 1012.1
20260507210120 11 206 1.6 6.4 0.00 0.00 0.00 66 1012.1
20260507205037 11 176 6.4 17.7 0.00 0.00 0.00 66 1012.0
20260507204101 11 213 4.8 11.3 0.00 0.00 0.00 65 1012.0
20260507203056 11 168 4.8 12.9 0.00 0.00 0.00 65 1012.0
20260507202201 12 195 4.8 12.9 0.00 0.00 0.00 65 1011.8
20260507201117 12 187 6.4 16.1 0.00 0.00 0.00 65 1011.7
20260507200120 12 226 6.4 14.5 0.00 0.00 0.00 64 1011.6
20260507195037 12 194 6.4 12.9 0.00 0.00 0.00 64 1011.5
20260507194100 12 197 6.4 14.5 0.00 0.00 0.00 64 1011.5
20260507193056 12 170 6.4 14.5 0.00 0.00 0.00 63 1011.3
20260507192121 12 187 6.4 12.9 0.00 0.00 0.00 60 1011.3
20260507191036 12 197 8.0 17.7 0.00 0.00 0.00 59 1011.3
20260507190101 12 217 6.4 17.7 0.00 0.00 0.00 59 1011.3
20260507185037 12 179 6.4 17.7 0.00 0.00 0.00 59 1011.3
20260507184141 12 194 6.4 12.9 0.00 0.00 0.00 59 1011.3
20260507183037 12 234 4.8 12.9 0.00 0.00 0.00 59 1011.3
20260507182241 12 197 6.4 14.5 0.00 0.00 0.00 59 1011.2
20260507181117 12 206 4.8 9.7 0.00 0.00 0.00 59 1011.2
20260507180100 12 219 3.2 8.0 0.00 0.00 0.00 60 1011.2
20260507175037 12 168 3.2 12.9 0.00 0.00 0.00 61 1011.2
20260507174140 13 221 1.6 3.2 0.00 0.00 0.00 60 1011.2
20260507173037 13 191 3.2 8.0 0.00 0.00 0.00 60 1011.3
20260507172101 13 245 3.2 11.3 0.00 0.00 0.00 62 1011.2
20260507171056 12 211 3.2 6.4 0.00 0.00 0.00 62 1011.3
20260507170101 12 238 1.6 6.4 0.00 0.00 0.00 62 1011.3
20260507165057 12 193 3.2 8.0 0.00 0.00 0.00 66 1011.4
20260507164101 12 244 1.6 6.4 0.00 0.00 0.00 67 1011.4
20260507163117 12 212 3.2 8.0 0.00 0.00 0.00 67 1011.6
20260507162121 12 221 6.4 11.3 0.00 0.00 0.00 66 1011.6
20260507161037 12 214 4.8 11.3 0.00 0.00 0.00 65 1011.7
20260507160101 12 185 6.4 12.9 0.00 0.00 0.00 64 1011.7
20260507155057 12 224 6.4 12.9 0.00 0.00 0.00 60 1011.7
20260507154101 13 232 11.3 25.7 0.00 0.00 0.00 56 1011.8
20260507153037 13 189 8.0 22.5 0.00 0.00 0.00 55 1011.5
20260507152201 13 182 8.0 17.7 0.00 0.00 0.00 56 1011.5
20260507151036 13 210 8.0 16.1 0.00 0.00 0.00 57 1011.6
20260507150101 13 246 8.0 17.7 0.00 0.00 0.00 57 1011.7
20260507145057 13 201 8.0 17.7 0.00 0.00 0.00 57 1011.7
20260507144141 13 234 9.7 22.5 0.00 0.00 0.00 57 1011.8
20260507143037 13 198 9.7 19.3 0.00 0.00 0.00 57 1011.8
20260507142121 13 263 8.0 14.5 0.00 0.00 0.00 58 1011.9
20260507141037 13 157 8.0 17.7 0.00 0.00 0.00 59 1012.0
20260507140121 13 171 8.0 16.1 0.00 0.00 0.00 59 1012.0
20260507135037 13 194 8.0 14.5 0.00 0.00 0.00 59 1012.1
20260507134101 13 132 8.0 12.9 0.00 0.00 0.00 60 1012.1
20260507133037 12 209 6.4 16.1 0.00 0.00 0.00 60 1012.1
20260507132101 12 176 9.7 17.7 0.00 0.00 0.00 60 1012.1
20260507131057 12 174 8.0 19.3 0.00 0.00 0.00 60 1012.2
20260507130201 12 168 8.0 14.5 0.00 0.00 0.00 63 1012.2
20260507125037 12 168 8.0 16.1 0.00 0.00 0.00 63 1012.3
20260507124101 12 169 9.7 17.7 0.00 0.00 0.00 63 1012.4
20260507123037 12 164 6.4 12.9 0.00 0.00 0.00 64 1012.5
20260507122101 11 158 4.8 9.7 0.00 0.00 0.00 64 1012.6
20260507121037 11 206 6.4 12.9 0.00 0.00 0.00 64 1012.6
20260507120141 11 192 6.4 12.9 0.00 0.00 0.00 64 1012.7
20260507115117 11 166 4.8 9.7 0.00 0.00 0.00 63 1012.7
20260507114101 11 163 6.4 14.5 0.00 0.00 0.00 62 1012.7
20260507113037 11 193 8.0 16.1 0.00 0.00 0.00 62 1012.8
20260507112121 11 173 6.4 11.3 0.00 0.00 0.00 63 1012.8
20260507111057 12 189 6.4 12.9 0.00 0.00 0.00 63 1012.8
20260507105057 12 179 4.8 14.5 0.00 0.00 0.00 63 1012.8
20260507104101 12 164 6.4 12.9 0.00 0.00 0.00 61 1012.8
20260507103117 12 202 4.8 11.3 0.00 0.00 0.00 58 1012.8
20260507102101 12 161 4.8 12.9 0.00 0.00 0.00 58 1012.7
20260507101037 12 202 4.8 12.9 0.00 0.00 0.00 57 1012.7
20260507095037 12 120 3.2 12.9 0.00 0.00 0.00 62 1012.6
20260507094121 11 3 4.8 8.0 0.00 0.00 0.00 62 1012.6
20260507093057 11 356 4.8 9.7 0.00 0.00 0.00 61 1012.6
20260507092101 11 14 4.8 9.7 0.00 0.00 0.00 61 1012.7
20260507091137 11 172 4.8 8.0 0.00 0.00 0.00 61 1012.7
20260507085117 11 280 3.2 8.0 0.00 0.00 0.00 62 1012.8
20260507084101 11 233 4.8 11.3 0.00 0.00 0.00 61 1012.8
20260507083117 11 4 4.8 8.0 0.00 0.00 0.00 63 1012.8
20260507082121 11 1 4.8 9.7 0.00 0.00 0.00 64 1012.8
20260507081037 10 10 4.8 9.7 0.00 0.00 0.00 64 1012.8
20260507075057 10 42 4.8 9.7 0.00 0.00 0.00 64 1013.0
20260507074121 10 349 3.2 8.0 0.00 0.00 0.00 65 1013.0
20260507073037 10 38 3.2 11.3 0.00 0.00 0.00 64 1013.0
20260507072101 10 340 3.2 8.0 0.00 0.00 0.00 66 1013.0
20260507071057 9 191 4.8 9.7 0.00 0.00 0.00 67 1012.9
20260507070101 9 211 3.2 9.7 0.00 0.00 0.00 69 1012.9
20260507065137 9 145 1.6 8.0 0.00 0.00 0.00 70 1012.9
20260507064121 8 345 0.0 3.2 0.00 0.00 0.00 70 1013.0
20260507063117 8 201 1.6 4.8 0.00 0.00 0.00 70 1013.0
20260507062222 8 309 1.6 3.2 0.00 0.00 0.00 70 1013.0
20260507061037 8 4 0.0 3.2 0.00 0.00 0.00 71 1013.0
20260507055037 7 0.0 1.6 0.00 0.00 0.00 72 1013.0
20260507054101 7 0.0 1.6 0.00 0.00 0.00 74 1013.0
20260507053037 7 0.0 1.6 0.00 0.00 0.00 76 1013.0
20260507052142 7 0.0 1.6 0.00 0.00 0.00 76 1013.1
20260507051117 7 0.0 0.0 0.00 0.00 0.00 75 1013.0
20260507050141 6 0.0 0.0 0.00 0.00 0.00 75 1013.0
20260507044122 7 180 0.0 1.6 0.00 0.00 0.00 74 1013.0
20260507043057 7 0.0 1.6 0.00 0.00 0.00 74 1013.1
20260507042101 7 0 0.0 3.2 0.00 0.00 0.00 74 1013.0
20260507041037 7 0 0.0 3.2 0.00 0.00 0.00 74 1013.0
20260507040121 7 0 0.0 3.2 0.00 0.00 0.00 74 1013.0
20260507035058 7 357 1.6 3.2 0.00 0.00 0.00 74 1013.0
20260507034201 7 354 1.6 3.2 0.00 0.00 0.00 73 1013.1
20260507033057 7 0 0.0 3.2 0.00 0.00 0.00 73 1013.2
20260507032102 7 338 0.0 3.2 0.00 0.00 0.00 73 1013.3
20260507031037 7 0 0.0 3.2 0.00 0.00 0.00 73 1013.3
20260507030121 7 4 0.0 3.2 0.00 0.00 0.00 73 1013.3
20260507025038 7 15 1.6 3.2 0.00 0.00 0.00 73 1013.4
20260507024122 7 24 1.6 3.2 0.00 0.00 0.00 72 1013.4
20260507023037 7 354 0.0 3.2 0.00 0.00 0.00 72 1013.4
20260507022101 7 0 0.0 3.2 0.00 0.00 0.00 72 1013.4
20260507021138 7 3 1.6 3.2 0.00 0.00 0.00 72 1013.4
20260507020202 7 343 0.0 3.2 0.00 0.00 0.00 72 1013.5
20260507015037 7 349 0.0 3.2 0.00 0.00 0.00 71 1013.5
20260507014141 7 0 1.6 3.2 0.00 0.00 0.00 71 1013.5
20260507013057 7 3 1.6 3.2 0.00 0.00 0.00 71 1013.6
20260507012102 7 0 1.6 3.2 0.00 0.00 0.00 71 1013.7
20260507010141 7 10 1.6 3.2 0.00 0.00 0.00 68 1013.7
20260507005118 7 180 1.6 4.8 0.00 0.00 0.00 65 1013.8
20260507004102 7 222 1.6 4.8 0.00 0.00 0.00 65 1013.9
20260507003037 7 294 1.6 4.8 0.00 0.00 0.00 64 1014.0
20260507002142 7 18 1.6 3.2 0.00 0.00 0.00 64 1014.0
20260507001058 7 249 1.6 8.0 0.00 0.00 0.00 63 1014.0
20260507000101 7 95 3.2 8.0 0.00 0.00 0.00 63 1014.1
20260506235118 7 210 3.2 8.0 0.00 0.00 0.00 63 1014.2
20260506234101 7 174 3.2 4.8 0.00 0.00 0.00 63 1014.3
20260506233118 8 331 1.6 8.0 0.00 0.00 0.00 63 1014.4